LGX43B LIEE-LIMF

Flight info

Callsign LGX43B
Flight time 1h 6m
Altitude 35000
Route KOVAS DCT DEXUL DCT LABOM DCT UREXE DCT ROMPO DCT IBROS DCT ELB DCT KONER DCT UNITA DCT ANAKI DCT LAGEN
Aircraft A320/M-SDE2FGHIJ1RWXY/HB1

Departure

Time 2026-05-08 19:12
Airport Cagliari Elmas Airport (LIEE)

Arrival

Time 2026-05-08 20:18
Airport Turin Airport (LIMF)
Time Latitude Longitude Altitude Speed Heading
2026-05-08 19:05 39.24858 9.06147 20 ft 0 kts 227°
2026-05-08 19:06 39.24855 9.06141 19 ft 1 kts 227°
2026-05-08 19:06 39.24840 9.06109 19 ft 6 kts 252°
2026-05-08 19:06 39.24863 9.06035 20 ft 11 kts 315°
2026-05-08 19:06 39.24929 9.05954 20 ft 13 kts 316°
2026-05-08 19:07 39.25000 9.05872 20 ft 13 kts 317°
2026-05-08 19:07 39.25073 9.05787 19 ft 14 kts 318°
2026-05-08 19:07 39.25150 9.05700 20 ft 14 kts 317°
2026-05-08 19:07 39.25228 9.05608 19 ft 15 kts 318°
2026-05-08 19:08 39.25312 9.05509 20 ft 16 kts 317°
2026-05-08 19:08 39.25401 9.05405 19 ft 17 kts 318°
2026-05-08 19:08 39.25491 9.05296 20 ft 18 kts 316°
2026-05-08 19:08 39.25586 9.05187 20 ft 18 kts 320°
2026-05-08 19:09 39.25685 9.05078 20 ft 19 kts 319°
2026-05-08 19:09 39.25787 9.04963 20 ft 19 kts 318°
2026-05-08 19:09 39.25888 9.04844 20 ft 20 kts 317°
2026-05-08 19:09 39.25991 9.04719 20 ft 20 kts 316°
2026-05-08 19:10 39.26096 9.04593 20 ft 20 kts 314°
2026-05-08 19:10 39.26116 9.04540 20 ft 2 kts 281°
2026-05-08 19:10 39.26120 9.04514 19 ft 3 kts 281°
2026-05-08 19:10 39.26124 9.04459 20 ft 10 kts 265°
2026-05-08 19:11 39.26064 9.04391 20 ft 14 kts 162°
2026-05-08 19:11 39.25991 9.04453 19 ft 0 kts 136°
2026-05-08 19:11 39.25989 9.04456 19 ft 1 kts 136°
2026-05-08 19:11 39.25970 9.04479 20 ft 19 kts 136°
2026-05-08 19:12 39.25683 9.04813 20 ft 90 kts 138°
2026-05-08 19:12 39.25052 9.05540 20 ft 149 kts 138°
2026-05-08 19:12 39.24234 9.06515 447 ft 162 kts 139°
2026-05-08 19:12 39.23387 9.07480 1066 ft 166 kts 140°
2026-05-08 19:13 39.22527 9.08459 1731 ft 168 kts 140°
2026-05-08 19:13 39.21623 9.09494 2240 ft 181 kts 140°
2026-05-08 19:13 39.20644 9.10624 2628 ft 195 kts 139°
2026-05-08 19:13 39.19511 9.11797 2970 ft 212 kts 153°
2026-05-08 19:14 39.18012 9.12237 3209 ft 233 kts 187°
2026-05-08 19:14 39.16517 9.11505 3935 ft 233 kts 219°
2026-05-08 19:14 39.15392 9.10062 4773 ft 230 kts 228°
2026-05-08 19:14 39.14341 9.08455 5521 ft 233 kts 238°
2026-05-08 19:15 39.13788 9.06527 6291 ft 233 kts 265°
2026-05-08 19:15 39.14008 9.04429 7065 ft 236 kts 291°
2026-05-08 19:15 39.15000 9.02626 7511 ft 256 kts 314°
2026-05-08 19:15 39.16401 9.01004 8067 ft 269 kts 316°
2026-05-08 19:16 39.17892 8.99329 8892 ft 272 kts 315°
2026-05-08 19:16 39.19347 8.97679 9803 ft 272 kts 315°
2026-05-08 19:16 39.20743 8.96078 10648 ft 272 kts 314°
2026-05-08 19:16 39.22178 8.94473 11415 ft 277 kts 320°
2026-05-08 19:17 39.23886 8.93324 12118 ft 289 kts 336°
2026-05-08 19:17 39.25910 8.92839 12584 ft 308 kts 349°
2026-05-08 19:17 39.28108 8.92657 12892 ft 327 kts 352°
2026-05-08 19:17 39.30439 8.92529 13188 ft 343 kts 352°
2026-05-08 19:18 39.32888 8.92388 13468 ft 359 kts 352°
2026-05-08 19:18 39.35417 8.92223 13731 ft 373 kts 352°
2026-05-08 19:18 39.38039 8.92041 13978 ft 387 kts 352°
2026-05-08 19:18 39.40787 8.91962 14201 ft 404 kts 359°
2026-05-08 19:19 39.43592 8.92541 14408 ft 423 kts 11°
2026-05-08 19:19 39.46395 8.93948 14668 ft 439 kts 22°
2026-05-08 19:19 39.49073 8.95811 15157 ft 444 kts 25°
2026-05-08 19:19 39.51761 8.97795 15640 ft 447 kts 26°
2026-05-08 19:20 39.54470 8.99792 16087 ft 450 kts 25°
2026-05-08 19:20 39.56324 9.01141 16392 ft 452 kts 25°
2026-05-08 19:20 39.59941 9.03742 16976 ft 456 kts 25°
2026-05-08 19:20 39.62754 9.05629 17386 ft 457 kts 21°
2026-05-08 19:21 39.65674 9.07220 17785 ft 457 kts 15°
2026-05-08 19:21 39.68679 9.08478 18173 ft 457 kts 11°
2026-05-08 19:21 39.71745 9.09532 18572 ft 458 kts
2026-05-08 19:21 39.74847 9.10538 18930 ft 461 kts
2026-05-08 19:22 39.77978 9.11552 19289 ft 464 kts
2026-05-08 19:22 39.81104 9.12587 19649 ft 466 kts
2026-05-08 19:22 39.84285 9.13685 19996 ft 470 kts 11°
2026-05-08 19:22 39.87412 9.14973 20329 ft 475 kts 14°
2026-05-08 19:23 39.90490 9.16443 20652 ft 478 kts 16°
2026-05-08 19:23 39.93652 9.18020 20976 ft 481 kts 16°
2026-05-08 19:23 39.96774 9.19593 21281 ft 483 kts 16°
2026-05-08 19:23 39.99878 9.21157 21576 ft 485 kts 16°
2026-05-08 19:24 40.03065 9.22758 21870 ft 488 kts 16°
2026-05-08 19:24 40.06199 9.24330 22148 ft 490 kts 16°
2026-05-08 19:24 40.09407 9.25936 22411 ft 492 kts 16°
2026-05-08 19:24 40.12574 9.27521 22614 ft 495 kts 16°
2026-05-08 19:25 40.15791 9.29134 22834 ft 498 kts 16°
2026-05-08 19:25 40.19020 9.30755 23066 ft 500 kts 16°
2026-05-08 19:25 40.22275 9.32391 23287 ft 502 kts 16°
2026-05-08 19:25 40.25439 9.33983 23510 ft 503 kts 16°
2026-05-08 19:26 40.28786 9.35669 23923 ft 500 kts 16°
2026-05-08 19:26 40.32021 9.37302 24361 ft 496 kts 16°
2026-05-08 19:26 40.35209 9.38910 24677 ft 496 kts 15°
2026-05-08 19:26 40.38400 9.40520 24949 ft 497 kts 15°
2026-05-08 19:27 40.41774 9.42224 25247 ft 497 kts 15°
2026-05-08 19:27 40.45033 9.43873 25550 ft 497 kts 15°
2026-05-08 19:27 40.48253 9.45504 25851 ft 497 kts 15°
2026-05-08 19:27 40.51455 9.47127 26150 ft 498 kts 15°
2026-05-08 19:28 40.54680 9.48763 26448 ft 498 kts 15°
2026-05-08 19:28 40.57935 9.50417 26750 ft 498 kts 15°
2026-05-08 19:28 40.61191 9.52072 27056 ft 498 kts 15°
2026-05-08 19:28 40.64392 9.53701 27386 ft 497 kts 15°
2026-05-08 19:29 40.67631 9.55352 27738 ft 496 kts 15°
2026-05-08 19:29 40.70864 9.57001 28085 ft 495 kts 15°
2026-05-08 19:29 40.74057 9.58631 28393 ft 495 kts 15°
2026-05-08 19:29 40.77268 9.60272 28708 ft 494 kts 15°
2026-05-08 19:30 40.80452 9.61897 29173 ft 489 kts 16°
2026-05-08 19:30 40.83581 9.63492 29632 ft 484 kts 17°
2026-05-08 19:30 40.86726 9.65105 30012 ft 482 kts 17°
2026-05-08 19:30 40.89846 9.66710 30287 ft 482 kts 17°
2026-05-08 19:31 40.92986 9.68326 30536 ft 482 kts 17°
2026-05-08 19:31 40.96103 9.69935 30791 ft 483 kts 17°
2026-05-08 19:31 40.99198 9.71534 31051 ft 482 kts 17°
2026-05-08 19:31 41.02322 9.73149 31312 ft 482 kts 17°
2026-05-08 19:32 41.05456 9.74770 31570 ft 482 kts 17°
2026-05-08 19:32 41.08574 9.76372 31789 ft 482 kts 15°
2026-05-08 19:32 41.11733 9.77810 31911 ft 484 kts 12°
2026-05-08 19:32 41.14718 9.79022 32060 ft 484 kts 11°
2026-05-08 19:33 41.18029 9.80321 32303 ft 484 kts 11°
2026-05-08 19:33 41.21181 9.81551 32560 ft 483 kts 11°
2026-05-08 19:33 41.24382 9.82804 32815 ft 483 kts 11°
2026-05-08 19:33 41.27621 9.84080 33083 ft 481 kts 11°
2026-05-08 19:34 41.30818 9.85342 33391 ft 479 kts 11°
2026-05-08 19:34 41.33990 9.86598 33629 ft 479 kts 11°
2026-05-08 19:34 41.37207 9.87874 33801 ft 479 kts 11°
2026-05-08 19:34 41.40365 9.89128 33954 ft 481 kts 11°
2026-05-08 19:35 41.43600 9.90415 34117 ft 481 kts 11°
2026-05-08 19:35 41.46806 9.91693 34281 ft 482 kts 11°
2026-05-08 19:35 41.49991 9.92964 34438 ft 482 kts 11°
2026-05-08 19:35 41.53190 9.94241 34598 ft 483 kts 11°
2026-05-08 19:36 41.56399 9.95524 34758 ft 483 kts 11°
2026-05-08 19:36 41.59631 9.96818 34912 ft 483 kts 11°
2026-05-08 19:36 41.62843 9.98105 35044 ft 484 kts 11°
2026-05-08 19:37 41.69291 10.00691 35054 ft 485 kts 11°
2026-05-08 19:37 41.75756 10.03292 35057 ft 485 kts 11°
2026-05-08 19:38 41.82179 10.05823 35057 ft 480 kts 10°
2026-05-08 19:38 41.88621 10.08173 35056 ft 479 kts 10°
2026-05-08 19:39 41.95041 10.10509 35056 ft 479 kts 10°
2026-05-08 19:39 42.01504 10.12878 35049 ft 479 kts 10°
2026-05-08 19:40 42.07925 10.15244 35039 ft 480 kts 10°
2026-05-08 19:40 42.14345 10.17616 35034 ft 480 kts 10°
2026-05-08 19:41 42.20767 10.19994 35032 ft 480 kts 10°
2026-05-08 19:41 42.27163 10.22367 35036 ft 478 kts 10°
2026-05-08 19:42 42.33548 10.24743 35031 ft 474 kts 10°
2026-05-08 19:42 42.39901 10.27114 35031 ft 474 kts
2026-05-08 19:43 42.46273 10.29490 35031 ft 474 kts
2026-05-08 19:43 42.52585 10.31849 35031 ft 474 kts
2026-05-08 19:44 42.58949 10.34236 35031 ft 474 kts
2026-05-08 19:44 42.65150 10.36238 35029 ft 467 kts
2026-05-08 19:45 42.71497 10.36115 35031 ft 454 kts 344°
2026-05-08 19:45 42.74578 10.35147 34845 ft 448 kts 336°
2026-05-08 19:45 42.77414 10.33661 34600 ft 441 kts 329°
2026-05-08 19:45 42.80099 10.31645 34347 ft 435 kts 321°
2026-05-08 19:46 42.82513 10.29242 34109 ft 431 kts 316°
2026-05-08 19:46 42.89492 10.21467 34031 ft 434 kts 316°
2026-05-08 19:47 42.94190 10.16227 34031 ft 435 kts 316°
2026-05-08 19:47 42.98872 10.11016 34036 ft 435 kts 316°
2026-05-08 19:48 43.03574 10.05778 34046 ft 435 kts 316°
2026-05-08 19:48 43.08246 10.00565 34052 ft 435 kts 316°
2026-05-08 19:49 43.12936 9.95321 34055 ft 435 kts 316°
2026-05-08 19:49 43.17589 9.90109 34055 ft 435 kts 316°
2026-05-08 19:50 43.22228 9.84901 34056 ft 435 kts 316°
2026-05-08 19:50 43.26904 9.79636 34057 ft 434 kts 316°
2026-05-08 19:51 43.31561 9.74385 34056 ft 433 kts 317°
2026-05-08 19:51 43.36208 9.69141 34055 ft 434 kts 317°
2026-05-08 19:52 43.40869 9.63869 34056 ft 434 kts 317°
2026-05-08 19:52 43.45521 9.58593 34056 ft 434 kts 317°
2026-05-08 19:53 43.50198 9.53277 34056 ft 434 kts 317°
2026-05-08 19:53 43.54863 9.47965 34056 ft 434 kts 317°
2026-05-08 19:54 43.59524 9.42649 34055 ft 434 kts 317°
2026-05-08 19:54 43.64168 9.37341 34055 ft 434 kts 317°
2026-05-08 19:55 43.68760 9.32081 34056 ft 434 kts 316°
2026-05-08 19:55 43.73374 9.26786 34056 ft 434 kts 316°
2026-05-08 19:56 43.78007 9.21458 34053 ft 434 kts 316°
2026-05-08 19:56 43.82645 9.16114 34033 ft 433 kts 316°
2026-05-08 19:57 43.84926 9.13484 33791 ft 425 kts 316°
2026-05-08 19:57 43.87199 9.10858 33539 ft 423 kts 316°
2026-05-08 19:57 43.89468 9.08233 33288 ft 423 kts 316°
2026-05-08 19:57 43.91729 9.05612 33038 ft 424 kts 316°
2026-05-08 19:58 43.94011 9.02966 32710 ft 425 kts 316°
2026-05-08 19:58 43.96269 9.00345 32183 ft 426 kts 316°
2026-05-08 19:58 43.98529 8.97720 31508 ft 427 kts 316°
2026-05-08 19:58 44.00818 8.95058 30699 ft 429 kts 316°
2026-05-08 19:59 44.03149 8.92344 29904 ft 429 kts 316°
2026-05-08 19:59 44.05421 8.89696 29095 ft 430 kts 316°
2026-05-08 19:59 44.07706 8.87026 28190 ft 433 kts 317°
2026-05-08 19:59 44.10038 8.84299 27189 ft 437 kts 317°
2026-05-08 20:00 44.12361 8.81583 26176 ft 441 kts 317°
2026-05-08 20:00 44.14690 8.78858 25132 ft 445 kts 318°
2026-05-08 20:00 44.17069 8.76073 24044 ft 449 kts 319°
2026-05-08 20:00 44.19463 8.73266 22982 ft 451 kts 319°
2026-05-08 20:01 44.21861 8.70454 22282 ft 447 kts 319°
2026-05-08 20:01 44.24229 8.67675 21620 ft 442 kts 319°
2026-05-08 20:01 44.26482 8.65029 20963 ft 437 kts 319°
2026-05-08 20:01 44.28811 8.62289 20233 ft 434 kts 319°
2026-05-08 20:02 44.31101 8.59591 19526 ft 431 kts 319°
2026-05-08 20:02 44.33399 8.56881 18836 ft 427 kts 319°
2026-05-08 20:02 44.35764 8.54088 18134 ft 423 kts 319°
2026-05-08 20:02 44.38042 8.51323 17452 ft 419 kts 317°
2026-05-08 20:03 44.40219 8.48373 16886 ft 411 kts 314°
2026-05-08 20:03 44.42208 8.45359 16444 ft 401 kts 311°
2026-05-08 20:03 44.44049 8.42440 16058 ft 391 kts 311°
2026-05-08 20:03 44.45898 8.39483 15704 ft 381 kts 311°
2026-05-08 20:04 44.47646 8.36685 15460 ft 369 kts 311°
2026-05-08 20:04 44.49348 8.33962 15239 ft 357 kts 310°
2026-05-08 20:04 44.50967 8.31374 15018 ft 347 kts 310°
2026-05-08 20:04 44.52508 8.28908 14818 ft 337 kts 310°
2026-05-08 20:05 44.54026 8.26478 14572 ft 329 kts 310°
2026-05-08 20:05 44.55515 8.24092 14404 ft 318 kts 310°
2026-05-08 20:05 44.57025 8.21794 14061 ft 315 kts 314°
2026-05-08 20:05 44.58599 8.19561 13644 ft 313 kts 314°
2026-05-08 20:06 44.60158 8.17373 13288 ft 310 kts 314°
2026-05-08 20:06 44.61696 8.15203 12783 ft 312 kts 314°
2026-05-08 20:06 44.63243 8.13008 12276 ft 314 kts 314°
2026-05-08 20:06 44.64774 8.10825 11775 ft 315 kts 314°
2026-05-08 20:07 44.66297 8.08648 11351 ft 313 kts 314°
2026-05-08 20:07 44.67847 8.06427 10854 ft 308 kts 314°
2026-05-08 20:07 44.69339 8.04286 10345 ft 297 kts 314°
2026-05-08 20:07 44.70768 8.02233 9839 ft 287 kts 314°
2026-05-08 20:08 44.72142 8.00260 9337 ft 280 kts 314°
2026-05-08 20:08 44.73497 7.98312 8831 ft 273 kts 314°
2026-05-08 20:08 44.74885 7.96314 8305 ft 271 kts 314°
2026-05-08 20:08 44.76207 7.94407 7694 ft 270 kts 314°
2026-05-08 20:09 44.77517 7.92513 7064 ft 268 kts 315°
2026-05-08 20:09 44.78828 7.90616 6427 ft 265 kts 315°
2026-05-08 20:09 44.80102 7.88778 5979 ft 255 kts 315°
2026-05-08 20:09 44.81308 7.87038 5865 ft 242 kts 315°
2026-05-08 20:10 44.82461 7.85373 5857 ft 231 kts 315°
2026-05-08 20:10 44.83590 7.83743 5848 ft 230 kts 315°
2026-05-08 20:10 44.84700 7.82139 5856 ft 229 kts 315°
2026-05-08 20:10 44.85812 7.80529 5860 ft 229 kts 315°
2026-05-08 20:11 44.86923 7.78922 5861 ft 229 kts 315°
2026-05-08 20:11 44.88039 7.77303 5862 ft 229 kts 315°
2026-05-08 20:11 44.89152 7.75688 5862 ft 229 kts 315°
2026-05-08 20:11 44.90271 7.74067 5861 ft 230 kts 315°
2026-05-08 20:12 44.91387 7.72452 5862 ft 230 kts 314°
2026-05-08 20:12 44.92505 7.70824 5536 ft 236 kts 314°
2026-05-08 20:12 44.93681 7.69109 4919 ft 246 kts 314°
2026-05-08 20:12 44.94859 7.67391 4315 ft 246 kts 315°
2026-05-08 20:13 44.96045 7.65661 3926 ft 235 kts 315°
2026-05-08 20:13 44.97257 7.64161 3831 ft 219 kts 335°
2026-05-08 20:13 44.98663 7.63641 3910 ft 197 kts 356°
2026-05-08 20:13 44.99999 7.63624 3909 ft 192 kts
2026-05-08 20:14 45.01320 7.63730 3877 ft 188 kts
2026-05-08 20:14 45.02575 7.63841 3862 ft 168 kts
2026-05-08 20:14 45.03679 7.63928 3849 ft 152 kts
2026-05-08 20:14 45.04716 7.64000 3738 ft 146 kts
2026-05-08 20:15 45.05722 7.64065 3541 ft 145 kts
2026-05-08 20:15 45.06715 7.64127 3352 ft 144 kts
2026-05-08 20:15 45.07699 7.64187 3165 ft 144 kts
2026-05-08 20:15 45.08676 7.64247 2979 ft 143 kts
2026-05-08 20:16 45.09673 7.64308 2789 ft 143 kts
2026-05-08 20:16 45.10654 7.64368 2603 ft 142 kts
2026-05-08 20:16 45.11631 7.64429 2416 ft 142 kts
2026-05-08 20:16 45.12623 7.64492 2225 ft 142 kts
2026-05-08 20:17 45.13605 7.64553 2038 ft 141 kts
2026-05-08 20:17 45.14589 7.64615 1850 ft 141 kts
2026-05-08 20:17 45.15564 7.64677 1665 ft 140 kts
2026-05-08 20:17 45.16543 7.64739 1475 ft 139 kts
2026-05-08 20:18 45.17507 7.64801 1294 ft 138 kts
2026-05-08 20:18 45.18472 7.64863 1102 ft 137 kts
2026-05-08 20:18 45.19406 7.64922 995 ft 124 kts
2026-05-08 20:18 45.19981 7.64957 994 ft 40 kts
2026-05-08 20:19 45.20124 7.64952 994 ft 16 kts 328°
2026-05-08 20:19 45.20192 7.64863 994 ft 10 kts 296°
2026-05-08 20:19 45.20193 7.64858 994 ft 0 kts 295°
2026-05-08 20:19 45.20196 7.64848 994 ft 2 kts 285°
2026-05-08 20:20 45.20198 7.64838 994 ft 0 kts 283°
2026-05-08 20:20 45.20199 7.64829 994 ft 0 kts 277°
2026-05-08 20:20 45.20198 7.64800 994 ft 5 kts 263°
2026-05-08 20:20 45.20184 7.64747 994 ft 6 kts 236°
2026-05-08 20:21 45.20148 7.64707 994 ft 7 kts 204°
2026-05-08 20:21 45.20095 7.64693 994 ft 8 kts 184°
2026-05-08 20:21 45.20036 7.64688 994 ft 9 kts 182°
2026-05-08 20:21 45.19968 7.64684 994 ft 10 kts 183°
2026-05-08 20:22 45.19893 7.64679 994 ft 11 kts 181°
2026-05-08 20:22 45.19813 7.64677 994 ft 11 kts 178°
2026-05-08 20:22 45.19728 7.64691 994 ft 12 kts 179°
2026-05-08 20:22 45.19639 7.64687 994 ft 13 kts 182°
2026-05-08 20:23 45.19545 7.64680 994 ft 14 kts 184°
2026-05-08 20:23 45.19444 7.64673 994 ft 14 kts 183°
2026-05-08 20:23 45.19363 7.64667 994 ft 0 kts 182°
2026-05-08 20:23 45.19355 7.64667 994 ft 8 kts 180°
2026-05-08 20:24 45.19276 7.64665 994 ft 11 kts 182°
2026-05-08 20:24 45.19233 7.64593 994 ft 9 kts 256°
2026-05-08 20:24 45.19221 7.64524 994 ft 2 kts 258°